It's Tuesday,
July 23rd, 2024
User not logged in
[Run Race Header Image][Run Race logo]
  
Race webcasting is attempted by race directors and their support staff. Please remember that conditions under which they're working may make it difficult to post timely webcast updates... your interest and patience is appreciated!
Race Information
Race Name:Des Plaines River Trail Races 2016
Location:Half Day Forest Preserve - Vernon Hills
State:Illinois, United States
 button: button: Webcast Autoplay
Event Information
Name of Event:DPR Trail 50 Mile Ultramarathon
Distance:50 Miles
Started Date/Time:Saturday October 15th, 2016, 6:59:55.46 am
button: Assign Numbers 

Event Information
Name of Event:DPR Trail Marathon
Distance:26.2 Miles
Started Date/Time:Saturday October 15th, 2016, 7:59:55.51 am
button: Assign Numbers  
Checkpoint:#1 Half Day Road : Start
Distance:0 Miles
Gun Start Time:Saturday October 15th, 2016 7:59:55.51 am
Calculate Chip Start Time:Yes
Y or N... Calculate splits based upon participant chip start time?
Allow Early Chip Start Time:< not set >
Y or N... Allow participants a chip start time prior to gun start?
Pos Race
Number
NameAgeSexChip Start Date / Time
Lynda Morrill45F< not set >Sat Oct 15th, 2016 7:59:56.29 am
Tim Fager40M< not set >Sat Oct 15th, 2016 7:59:56.44 am
78Zach Gingerich28M< not set >Sat Oct 15th, 2016 7:59:56.46 am
122Gary Gudlin53M< not set >Sat Oct 15th, 2016 7:59:56.72 am
63Bill Etnyre26M< not set >Sat Oct 15th, 2016 7:59:56.81 am
201Matt Aro29M< not set >Sat Oct 15th, 2016 7:59:56.85 am
150Summer Forester25F< not set >Sat Oct 15th, 2016 7:59:57.13 am
114Danny Ponder49M< not set >Sat Oct 15th, 2016 7:59:57.49 am
790Dan Myers50M< not set >Sat Oct 15th, 2016 7:59:58.47 am
1311The Flyin' FlunkiesX< not set >Sat Oct 15th, 2016 7:59:58.69 am
19liam genereaux13M< not set >Sat Oct 15th, 2016 7:59:58.73 am
430Team BuffaloM< not set >Sat Oct 15th, 2016 7:59:58.74 am
824James Turner36M< not set >Sat Oct 15th, 2016 7:59:58.85 am
822Debbie Tirrito53F< not set >Sat Oct 15th, 2016 7:59:59.07 am
162Lawrence Seward63M< not set >Sat Oct 15th, 2016 7:59:59.17 am
189Varsha Kulkarni44F< not set >Sat Oct 15th, 2016 7:59:59.53 am
Gabe Rainwater20M< not set >Sat Oct 15th, 2016 7:59:59.67 am
Dennis Nink46M< not set >Sat Oct 15th, 2016 8:00:00.02 am
1321Team SBRX< not set >Sat Oct 15th, 2016 8:00:00.07 am
31Tonique Allen47F< not set >Sat Oct 15th, 2016 8:00:00.18 am
830Ray Zirblis53M< not set >Sat Oct 15th, 2016 8:00:00.26 am
68Edward Rousseau68M< not set >Sat Oct 15th, 2016 8:00:00.77 am
1271Fleet Feet MadisonX< not set >Sat Oct 15th, 2016 8:00:00.86 am
117Linda McQuinn50F< not set >Sat Oct 15th, 2016 8:00:01.18 am
1Urban Cougar48M< not set >Sat Oct 15th, 2016 8:00:01.4 am
92Patrick Gorman49M< not set >Sat Oct 15th, 2016 8:00:01.94 am
98Scott Jacaway50M< not set >Sat Oct 15th, 2016 8:00:02.23 am
42Christopher Miller28M< not set >Sat Oct 15th, 2016 8:00:02.49 am
11Bob Rehn65M< not set >Sat Oct 15th, 2016 8:00:02.61 am
645Chris Alexander40M< not set >Sat Oct 15th, 2016 8:00:03.01 am
262Raymond churgovich42M< not set >Sat Oct 15th, 2016 8:00:03.19 am
607Janelle Zimmerman28F< not set >Sat Oct 15th, 2016 8:00:03.75 am
Nancy Campos22F< not set >Sat Oct 15th, 2016 8:00:04.33 am
812BETTY ROSE60F< not set >Sat Oct 15th, 2016 8:00:05.98 am
656Mark Carlson45M< not set >Sat Oct 15th, 2016 8:00:06.85 am
Drew Deppen25M< not set >Sat Oct 15th, 2016 8:00:07.17 am
191Scott Hudson40M< not set >Sat Oct 15th, 2016 8:00:07.6 am
217Tracy Thomas47F< not set >Sat Oct 15th, 2016 8:00:10.45 am
114Dennis Crowne52M< not set >Sat Oct 15th, 2016 8:00:10.55 am
76Susan Morrill14F< not set >Sat Oct 15th, 2016 8:00:10.59 am
257Kami Holtz35F< not set >Sat Oct 15th, 2016 8:00:11.33 am
19Mark Godale37M< not set >Sat Oct 15th, 2016 8:00:11.49 am
828Randy Witlicki52M< not set >Sat Oct 15th, 2016 8:00:11.51 am
272ANDREA PUTZ25F< not set >Sat Oct 15th, 2016 8:00:11.99 am
6roy pIrRUNg59M< not set >Sat Oct 15th, 2016 8:00:13.18 am
70Dwayne Sandall41M< not set >Sat Oct 15th, 2016 8:02:56.87 am
267Stephen Geering53M< not set >Sat Oct 15th, 2016 8:02:56.99 am
16Anthony Mischo36M< not set >Sat Oct 15th, 2016 8:02:57.88 am
Rob Hermann39M< not set >Sat Oct 15th, 2016 8:02:58.03 am
684chase marsden17M< not set >Sat Oct 15th, 2016 8:02:58.09 am
1231Internal Revenue RunnersX< not set >Sat Oct 15th, 2016 8:02:58.39 am
763Kristen Evan46F< not set >Sat Oct 15th, 2016 8:02:58.61 am
Eric Heath35M< not set >Sat Oct 15th, 2016 8:02:59.23 am
440Psychic MaryM< not set >Sat Oct 15th, 2016 8:02:59.42 am
542.1Rachel Furman25F< not set >Sat Oct 15th, 2016 8:02:59.48 am
Joel Maurer53M< not set >Sat Oct 15th, 2016 8:02:59.94 am
Constance Karras42F< not set >Sat Oct 15th, 2016 8:03:00.14 am
782Albert Laporte38M< not set >Sat Oct 15th, 2016 8:03:00.24 am
Jana Kiefer55F< not set >Sat Oct 15th, 2016 8:03:00.27 am
Michael Morgan34M< not set >Sat Oct 15th, 2016 8:03:00.48 am
161Matt Santo31M< not set >Sat Oct 15th, 2016 8:03:01.15 am
813TIMOTHYP ROY43M< not set >Sat Oct 15th, 2016 8:03:01.41 am
24kurt decker36M< not set >Sat Oct 15th, 2016 8:03:01.83 am
585Jane Chapman48F< not set >Sat Oct 15th, 2016 8:03:02.26 am
527Frank Powers48M< not set >Sat Oct 15th, 2016 8:03:02.27 am
John Collet40M< not set >Sat Oct 15th, 2016 8:03:02.28 am
Mike Caldwell39M< not set >Sat Oct 15th, 2016 8:03:03.03 am
198Jason Fields33M< not set >Sat Oct 15th, 2016 8:03:03.14 am
11Stubs Turtle48M< not set >Sat Oct 15th, 2016 8:03:03.31 am
Ty Wivell33M< not set >Sat Oct 15th, 2016 8:03:03.46 am
202Gabriel Kohn35M< not set >Sat Oct 15th, 2016 8:03:03.79 am
648Burch LaPrade36M< not set >Sat Oct 15th, 2016 8:03:03.91 am
Leonard Ealey40M< not set >Sat Oct 15th, 2016 8:03:04.09 am
Ryan Dannhorn30M< not set >Sat Oct 15th, 2016 8:03:05.69 am
767steve genereaux46M< not set >Sat Oct 15th, 2016 8:03:05.84 am
218Charlotte Vasarhelyi33F< not set >Sat Oct 15th, 2016 8:03:05.98 am
Matthew McQueen19M< not set >Sat Oct 15th, 2016 8:03:06.33 am
192Greg Allen43M< not set >Sat Oct 15th, 2016 8:03:06.81 am
75Lynda Morrill45F< not set >Sat Oct 15th, 2016 8:03:07.46 am
664Jim Wilson48M< not set >Sat Oct 15th, 2016 8:03:07.51 am
264Julie Shimer29F< not set >Sat Oct 15th, 2016 8:03:07.67 am
Chris Lawrence33M< not set >Sat Oct 15th, 2016 8:03:07.8 am
784Jeff List48M< not set >Sat Oct 15th, 2016 8:03:08.59 am
alexa alexanderian39F< not set >Sat Oct 15th, 2016 8:03:08.73 am
209Paul Hanaki-Martin45M< not set >Sat Oct 15th, 2016 8:03:08.97 am
609Paul DeWitt39M< not set >Sat Oct 15th, 2016 8:03:09.11 am
84ben choi56M< not set >Sat Oct 15th, 2016 8:03:10.35 am
31Edwin Cook52M< not set >Sat Oct 15th, 2016 8:03:10.51 am
521Marla Luckey27F< not set >Sat Oct 15th, 2016 8:03:11.82 am
8Marc Drautz35M< not set >Sat Oct 15th, 2016 8:03:21.18 am
146Rebecca Kasten39F< not set >Sat Oct 15th, 2016 8:03:21.38 am
58sean Doyle15M< not set >Sat Oct 15th, 2016 8:03:24.04 am
58Michael Matteson49M< not set >Sat Oct 15th, 2016 8:05:56.11 am
64Eric Lacher39M< not set >Sat Oct 15th, 2016 8:05:56.13 am
672Paul Krzesinski28M< not set >Sat Oct 15th, 2016 8:05:56.7 am
570kevin benes22M< not set >Sat Oct 15th, 2016 8:05:57.75 am
195Patrik Berger33M< not set >Sat Oct 15th, 2016 8:05:57.96 am
Angeline Stuma21F< not set >Sat Oct 15th, 2016 8:05:58.23 am
Don Lacharite76M< not set >Sat Oct 15th, 2016 8:05:59 am
2Lee Biga21M< not set >Sat Oct 15th, 2016 8:05:59.11 am
118Chris Migotsky43M< not set >Sat Oct 15th, 2016 8:05:59.75 am
203DICK CANTERBURY61M< not set >Sat Oct 15th, 2016 8:05:59.89 am
152Julie Schroeder51F< not set >Sat Oct 15th, 2016 8:06:00.05 am
Gerald Barney75M< not set >Sat Oct 15th, 2016 8:06:00.39 am
673Dustin Marsden23M< not set >Sat Oct 15th, 2016 8:06:00.53 am
69Anne Ver Hoef47F< not set >Sat Oct 15th, 2016 8:06:00.91 am
111Tom Krause37M< not set >Sat Oct 15th, 2016 8:06:00.92 am
196Tom Kissner47M< not set >Sat Oct 15th, 2016 8:06:01.05 am
789Mariah Murphy24F< not set >Sat Oct 15th, 2016 8:06:01.52 am
Paul Clement49M< not set >Sat Oct 15th, 2016 8:06:01.93 am
110Benjamin Clardy37M< not set >Sat Oct 15th, 2016 8:06:02.09 am
57Justin Doyle15M< not set >Sat Oct 15th, 2016 8:06:02.25 am
62Jason Strehlow30M< not set >Sat Oct 15th, 2016 8:06:02.65 am
108David A. Hughes63M< not set >Sat Oct 15th, 2016 8:06:02.85 am
Anthony Daino31M< not set >Sat Oct 15th, 2016 8:06:03.79 am
17Bruce Genereaux44M< not set >Sat Oct 15th, 2016 8:06:03.81 am
Jonathan Fintzi21M< not set >Sat Oct 15th, 2016 8:06:03.93 am
Lauren Lawrence28F< not set >Sat Oct 15th, 2016 8:06:04.21 am
116Sherry Meador42F< not set >Sat Oct 15th, 2016 8:06:04.9 am
Bob Elizeus44M< not set >Sat Oct 15th, 2016 8:06:05.21 am
1141Weakened WarriorsX< not set >Sat Oct 15th, 2016 8:06:05.25 am
55dominic ruffalo57M< not set >Sat Oct 15th, 2016 8:06:05.79 am
Christina Ashley47F< not set >Sat Oct 15th, 2016 8:06:05.87 am
667Tana Repella27F< not set >Sat Oct 15th, 2016 8:06:06.53 am
Spencer Eastman18M< not set >Sat Oct 15th, 2016 8:06:06.77 am
637Steve Riportella42M< not set >Sat Oct 15th, 2016 8:06:06.8 am
694Bill Gengler54M< not set >Sat Oct 15th, 2016 8:06:07.46 am
115Russell De Lap51M< not set >Sat Oct 15th, 2016 8:06:07.46 am
787Robert J Mathes55M< not set >Sat Oct 15th, 2016 8:06:07.66 am
101David Wakefield33M< not set >Sat Oct 15th, 2016 8:06:07.85 am
Mark W. Damitio49M< not set >Sat Oct 15th, 2016 8:06:07.99 am
Kyle Kershner46M< not set >Sat Oct 15th, 2016 8:06:08.07 am
155Thomas Krause36M< not set >Sat Oct 15th, 2016 8:06:08.59 am
43Lee Krautkramer42M< not set >Sat Oct 15th, 2016 8:06:09.21 am
37Ann Heaslett44F< not set >Sat Oct 15th, 2016 8:06:09.62 am
68Vicky Alcantar21F< not set >Sat Oct 15th, 2016 8:06:09.75 am
Betty Lacharite72F< not set >Sat Oct 15th, 2016 8:06:09.84 am
Peggy Owens60F< not set >Sat Oct 15th, 2016 8:06:10.03 am
163Brett Sherwood33M< not set >Sat Oct 15th, 2016 8:06:10.46 am
Ray Zirblis53M< not set >Sat Oct 15th, 2016 8:06:10.54 am
390Friday NightersM< not set >Sat Oct 15th, 2016 8:06:10.55 am
753Alireza Ashtari30M< not set >Sat Oct 15th, 2016 8:06:11.31 am
34Diane Odekirk67F< not set >Sat Oct 15th, 2016 8:06:11.41 am
Evan Levine27M< not set >Sat Oct 15th, 2016 8:06:11.46 am
103Brad Birkholz40M< not set >Sat Oct 15th, 2016 8:06:11.94 am
200Logan Beaulieu37M< not set >Sat Oct 15th, 2016 8:06:12.35 am
96Craig Swartwout50M< not set >Sat Oct 15th, 2016 8:06:12.82 am
1181No Name RunnersX< not set >Sat Oct 15th, 2016 8:06:12.83 am
102Greg Loomis34M< not set >Sat Oct 15th, 2016 8:06:13.06 am
193Patrick Mills56M< not set >Sat Oct 15th, 2016 8:06:13.94 am
172Tom Bunk66M< not set >Sat Oct 15th, 2016 8:06:15.08 am
Rebecca Geffers25F< not set >Sat Oct 15th, 2016 8:06:15.17 am
207Josh Dillingham23M< not set >Sat Oct 15th, 2016 8:06:20.96 am
59tim adair35M< not set >Sat Oct 15th, 2016 8:08:57.19 am
gary Henry51M< not set >Sat Oct 15th, 2016 8:08:57.39 am
Bradley Riedl24M< not set >Sat Oct 15th, 2016 8:08:57.52 am
646Al Kershner54M< not set >Sat Oct 15th, 2016 8:08:57.58 am
James Brown50M< not set >Sat Oct 15th, 2016 8:08:58.45 am
Geoff Riggs37M< not set >Sat Oct 15th, 2016 8:08:58.81 am
571Spencer Swearingen30M< not set >Sat Oct 15th, 2016 8:09:00.11 am
81Joseph Cichon43M< not set >Sat Oct 15th, 2016 8:09:00.41 am
187Deb Johnson48F< not set >Sat Oct 15th, 2016 8:09:00.61 am
604Kori Hieser28M< not set >Sat Oct 15th, 2016 8:09:02.07 am
123todd nott44M< not set >Sat Oct 15th, 2016 8:09:02.39 am
273BEN PUTZ27M< not set >Sat Oct 15th, 2016 8:09:02.63 am
214MICHAEL SILTMAN40M< not set >Sat Oct 15th, 2016 8:09:03.44 am
779Nikki Kimball37F< not set >Sat Oct 15th, 2016 8:09:03.62 am
Pete Stringer67M< not set >Sat Oct 15th, 2016 8:09:04.21 am
162Ronald Evans41M< not set >Sat Oct 15th, 2016 8:09:05.05 am
Courtney Desena30F< not set >Sat Oct 15th, 2016 8:09:05.11 am
23connie gardner44F< not set >Sat Oct 15th, 2016 8:09:05.47 am
701casey lopez31M< not set >Sat Oct 15th, 2016 8:09:05.71 am
816Nathan Sanel39M< not set >Sat Oct 15th, 2016 8:09:05.81 am
153dorn peddy50M< not set >Sat Oct 15th, 2016 8:09:06.86 am
635Josh Marsden21M< not set >Sat Oct 15th, 2016 8:09:07.69 am
148Michelle Gallagher42F< not set >Sat Oct 15th, 2016 8:09:07.91 am
117Paul Doody48M< not set >Sat Oct 15th, 2016 8:09:22.88 am
641James Thorpe26M< not set >Sat Oct 15th, 2016 8:09:39.27 am
815Brian Rusiecki29M< not set >
638Brian Finney40M< not set >
Julie Brandt25F< not set >Sat Oct 15th, 2016 8:45:20.41 am

Event Information
Name of Event:DPR Trail Half-Marathon
Distance:13.1 Miles
Started Date/Time:Saturday October 15th, 2016, 8:59:56.10 am
button: Assign Numbers 
2004-2024 : All rights reserved
Terms and Conditions